DW8097 Weather Reports


time (UTC)temp
C
wind
direction
speed
KPH
gust
KPH
rain 1hr
cm
rain 24hr
cm
rain mn
cm
humidity
%
barometer
mb
20260902034555 20 184 0.0 0.0 0.00 0.00 0.00 89 1010.6
20260902033057 20 184 0.0 0.0 0.00 0.00 0.00 89 1010.8
20260902031541 20 221 0.0 0.0 0.00 0.00 0.00 89 1010.7
20260902030027 20 221 0.0 0.0 0.00 0.00 0.00 88 1010.6
20260902024527 21 221 0.0 0.0 0.00 0.00 0.00 88 1010.6
20260902023025 21 221 0.0 0.0 0.00 0.00 0.00 88 1010.5
20260902020025 21 248 0.0 0.0 0.00 0.00 0.00 86 1010.4
20260902014518 22 209 0.0 0.0 0.00 0.00 0.00 86 1010.3
20260902013016 22 209 0.0 0.0 0.00 0.00 0.00 84 1010.1
20260902010014 23 209 0.0 0.0 0.00 0.00 0.00 85 1010.3
20260902004515 23 209 0.0 0.0 0.00 0.00 0.00 82 1010.1
20260902003002 24 220 0.0 0.0 0.00 0.00 0.00 80 1010.2
20260902001656 25 256 0.0 0.0 0.00 0.00 0.00 77 1010.1
20260902000056 26 256 0.0 0.0 0.00 0.00 0.00 72 1010.1
20260901234557 26 256 0.0 0.0 0.00 0.00 0.00 68 1010.0
20260901233051 26 261 0.0 0.0 0.00 0.00 0.00 69 1010.1
20260901231545 27 310 0.0 0.0 0.00 0.00 0.00 65 1009.9
20260901230042 27 292 0.0 0.0 0.00 0.00 0.00 63 1009.8
20260901224543 27 208 0.0 0.0 0.00 0.00 0.00 62 1009.8
20260901223034 28 283 0.0 1.6 0.00 0.00 0.00 59 1010.1
20260901221534 28 227 0.0 0.0 0.00 0.00 0.00 60 1010.1
20260901220031 28 208 0.0 0.0 0.00 0.00 0.00 56 1009.9
20260901214533 28 202 0.0 0.0 0.00 0.00 0.00 53 1010.0
20260901213032 29 286 0.0 0.0 0.00 0.00 0.00 51 1010.2
20260901211533 29 323 0.0 1.6 0.00 0.00 0.00 50 1009.8
20260901210026 30 235 0.0 3.2 0.00 0.00 0.00 47 1010.1
20260901204521 30 297 0.0 1.6 0.00 0.00 0.00 48 1010.0
20260901203021 28 269 0.0 0.0 0.00 0.00 0.00 51 1010.1
20260901201519 29 267 0.0 1.6 0.00 0.00 0.00 48 1010.5
20260901200022 30 243 0.0 8.0 0.00 0.00 0.00 46 1010.6
20260901194517 30 198 0.0 0.0 0.00 0.00 0.00 44 1010.6
20260901193130 31 136 0.0 3.2 0.00 0.00 0.00 41 1010.5
20260901191515 33 102 0.0 6.4 0.00 0.00 0.00 38 1010.3
20260901190018 32 86 0.0 9.7 0.00 0.00 0.00 41 1010.6
20260901184505 32 78 1.6 12.9 0.00 0.00 0.00 39 1010.8
20260901183001 33 78 1.6 12.9 0.00 0.00 0.00 38 1011.1
20260901181500 34 324 0.0 8.0 0.00 0.00 0.00 37 1011.2
20260901180054 33 130 1.6 11.3 0.00 0.00 0.00 39 1011.2
20260901174546 32 144 1.6 9.7 0.00 0.00 0.00 38 1011.3
20260901173039 32 123 0.0 11.3 0.00 0.00 0.00 41 1011.5
20260901171542 32 124 0.0 8.0 0.00 0.00 0.00 36 1011.6
20260901170025 30 360 0.0 0.0 0.00 0.00 0.00 51 1011.8
20260901164520 29 52 0.0 3.2 0.00 0.00 0.00 54 1011.9
20260901163014 28 360 0.0 6.4 0.00 0.00 0.00 57 1012.0
20260901161513 28 115 0.0 8.0 0.00 0.00 0.00 60 1011.9
20260901160111 28 106 1.6 12.9 0.00 0.00 0.00 63 1011.8
20260901154600 27 101 3.2 14.5 0.00 0.00 0.00 66 1011.9
20260901153059 27 46 0.0 3.2 0.00 0.00 0.00 68 1011.9
20260901151606 26 325 0.0 1.6 0.00 0.00 0.00 72 1012.1
20260901150056 24 318 0.0 3.2 0.00 0.00 0.00 76 1012.3
20260901144556 24 22 0.0 4.8 0.00 0.00 0.00 76 1012.2
20260901143109 23 345 0.0 0.0 0.00 0.00 0.00 78 1012.4
20260901141555 22 355 0.0 0.0 0.00 0.00 0.00 81 1012.3
20260901140104 22 11 1.6 6.4 0.00 0.00 0.00 84 1012.4
20260901134550 21 329 0.0 0.0 0.00 0.00 0.00 86 1012.4
20260901133047 20 322 0.0 0.0 0.00 0.00 0.00 87 1012.2
20260901131545 18 315 0.0 0.0 0.00 0.00 0.00 90 1012.0
20260901130044 18 229 0.0 0.0 0.00 0.00 0.00 89 1011.9
20260901124542 18 229 0.0 0.0 0.00 0.00 0.00 91 1011.9
20260901123042 18 253 0.0 0.0 0.00 0.00 0.00 92 1012.0
20260901121555 17 253 0.0 0.0 0.00 0.00 0.00 93 1011.8
20260901120037 16 253 0.0 0.0 0.00 0.00 0.00 93 1011.7
20260901114533 17 253 0.0 0.0 0.00 0.00 0.00 93 1011.4
20260901113032 17 253 0.0 0.0 0.00 0.00 0.00 92 1011.2
20260901111526 17 294 0.0 0.0 0.00 0.00 0.00 92 1011.3
20260901110032 17 247 0.0 0.0 0.00 0.00 0.00 92 1011.1
20260901104527 17 246 0.0 0.0 0.00 0.00 0.00 92 1011.1
20260901103026 17 246 0.0 0.0 0.00 0.00 0.00 92 1011.1
20260901101526 17 246 0.0 0.0 0.00 0.00 0.00 92 1010.9
20260901100019 17 224 0.0 0.0 0.00 0.00 0.00 92 1010.8
20260901094516 17 310 0.0 0.0 0.00 0.00 0.00 93 1010.8
20260901093015 17 243 0.0 0.0 0.00 0.00 0.00 92 1010.6
20260901091511 17 315 0.0 0.0 0.00 0.00 0.00 92 1010.8
20260901090013 17 315 0.0 0.0 0.00 0.00 0.00 93 1010.6
20260901084507 17 229 0.0 0.0 0.00 0.00 0.00 92 1010.5
20260901083007 18 229 0.0 0.0 0.00 0.00 0.00 92 1010.6
20260901081505 18 229 0.0 0.0 0.00 0.00 0.00 92 1010.5
20260901080005 18 249 0.0 0.0 0.00 0.00 0.00 91 1010.8
20260901074558 18 227 0.0 0.0 0.00 0.00 0.00 91 1010.8
20260901073058 18 227 0.0 0.0 0.00 0.00 0.00 91 1011.2
20260901071552 19 289 0.0 0.0 0.00 0.00 0.00 90 1011.1
20260901070056 19 348 0.0 0.0 0.00 0.00 0.00 91 1011.2
20260901064524 19 245 0.0 0.0 0.00 0.00 0.00 91 1010.9
20260901063026 19 244 0.0 0.0 0.00 0.00 0.00 90 1011.0
20260901061511 19 304 0.0 0.0 0.00 0.00 0.00 91 1010.8
20260901060007 19 223 0.0 0.0 0.00 0.00 0.00 91 1010.6
20260901054504 20 264 0.0 0.0 0.00 0.00 0.00 91 1010.5
20260901053000 20 235 0.0 0.0 0.00 0.00 0.00 90 1010.3
20260901051528 20 281 0.0 0.0 0.00 0.00 0.00 91 1010.2
20260901050025 20 308 0.0 0.0 0.00 0.00 0.00 89 1010.1
20260901044518 21 236 0.0 0.0 0.00 0.00 0.00 89 1010.1
20260901043023 21 268 0.0 0.0 0.00 0.00 0.00 90 1010.0
20260901041516 21 268 0.0 0.0 0.00 0.00 0.00 91 1010.2
20260901040016 21 248 0.0 0.0 0.00 0.00 0.00 91 1009.9